Champaign, IL

8:02 AM CST on November 20, 2019 (GMT -0600)
Univ Of Illinois-Willard

Weather History for KCMI - October, 2019

Change the Weather History Date:

Sunday, October 20, 2019

  Actual Average Record
Temperature  
Mean Temperature 59 °F 52 °F  
Max Temperature 67 °F 64 °F 84 °F (2003)
Min Temperature 50 °F 41 °F 24 °F (2018)
Degree Days  
Heating Degree Days 6 13  
Month to date heating degree days 179 204  
Since 1 July heating degree days 182 296  
Cooling Degree Days 0 0  
Month to date cooling degree days 28 14  
Year to date cooling degree days 1168 939  
Growing Degree Days 8 (Base 50)    
Moisture  
Dew Point 50 °F    
Average Humidity 76    
Maximum Humidity 93    
Minimum Humidity 58    
Precipitation  
Precipitation 0.00 in 0.11 in 0.84 in (2016)
Month to date precipitation 0.67 2.05  
Year to date precipitation 30.25 32.61  
Sea Level Pressure  
Sea Level Pressure 29.87 in    
Wind  
Wind Speed 4 mph (NW)    
Max Wind Speed 10 mph    
Max Gust Speed 17 mph    
Visibility 10 miles    
Events      
T = Trace of Precipitation, MM = Missing Value Source: NWS Daily Summary

Daily Weather History Graph

Daily Weather History Graph

Search for Another Location

Airport or City:

Astronomy

Oct. 20, 2019 Rise Set
Actual Time 7:08 AM CDT 6:06 PM CDT
Civil Twilight 6:41 AM CDT 6:33 PM CDT
Nautical Twilight 6:09 AM CDT 7:05 PM CDT
Astronomical Twilight 5:38 AM CDT 7:36 PM CDT
Moon 11:15 PM CDT 1:36 PM CDT
Length of Visible Light 11h 52m
Length of Day
10h 57m
Waning Gibbous, 59% of the Moon is Illuminated
Oct 20
Waning Gibbous
Oct 21
Last Quarter
Oct 27
New
Nov 4
First Quarter
Nov 12
Full

Hourly Weather History & Observations

Time (CDT) Temp. Dew Point Humidity Pressure Visibility Wind Dir Wind Speed Gust Speed Precip Events Conditions
12:53 AM 54.0 °F 48.9 °F 83% 29.79 in 10.0 mi WSW 3.5 mph - N/A   Overcast
1:53 AM 54.0 °F 50.0 °F 86% 29.80 in 10.0 mi WSW 3.5 mph - N/A   Overcast
2:53 AM 54.0 °F 50.0 °F 86% 29.80 in 10.0 mi West 3.5 mph - N/A   Overcast
3:53 AM 55.0 °F 51.1 °F 86% 29.80 in 10.0 mi NW 3.5 mph - N/A   Overcast
4:53 AM 54.0 °F 51.1 °F 90% 29.83 in 10.0 mi WNW 3.5 mph - N/A   Overcast
5:53 AM 54.0 °F 51.1 °F 90% 29.85 in 10.0 mi NW 4.6 mph - N/A   Overcast
6:30 AM 54.0 °F 51.1 °F 90% 29.86 in 9.0 mi NNW 8.1 mph - N/A   Overcast
6:53 AM 54.0 °F 51.1 °F 90% 29.87 in 8.0 mi NNW 5.8 mph - N/A   Overcast
7:23 AM 52.0 °F 50.0 °F 93% 29.87 in 7.0 mi NNW 5.8 mph - N/A   Overcast
7:38 AM 53.1 °F 50.0 °F 89% 29.87 in 7.0 mi NNW 6.9 mph - N/A   Overcast
7:51 AM 53.6 °F 50.0 °F 88% 29.88 in 9.0 mi NNW 6.9 mph - N/A   Overcast
7:53 AM 54.0 °F 50.0 °F 86% 29.88 in 9.0 mi NNW 5.8 mph - N/A   Overcast
8:53 AM 54.0 °F 50.0 °F 86% 29.91 in 10.0 mi NW 6.9 mph - N/A   Overcast
10:53 AM 55.9 °F 50.0 °F 80% 29.94 in 9.0 mi North 4.6 mph - N/A   Overcast
11:53 AM 55.9 °F 50.0 °F 80% 29.94 in 8.0 mi Variable 3.5 mph - N/A   Overcast
12:53 PM 57.0 °F 50.0 °F 77% 29.92 in 10.0 mi Variable 4.6 mph - N/A   Mostly Cloudy
1:12 PM 59.0 °F 51.1 °F 75% 29.91 in 10.0 mi Calm Calm - N/A   Scattered Clouds
1:53 PM 62.1 °F 51.1 °F 67% 29.90 in 10.0 mi Variable 3.5 mph - N/A   Partly Cloudy
2:53 PM 64.0 °F 51.1 °F 63% 29.89 in 10.0 mi Variable 3.5 mph - N/A   Partly Cloudy
3:53 PM 66.9 °F 51.1 °F 57% 29.88 in 10.0 mi Variable 6.9 mph - N/A   Mostly Cloudy
4:53 PM 66.0 °F 51.1 °F 59% 29.88 in 10.0 mi South 4.6 mph - N/A   Mostly Cloudy
5:53 PM 60.1 °F 50.0 °F 69% 29.88 in 10.0 mi Calm Calm - N/A   Clear
6:53 PM 52.0 °F 46.9 °F 83% 29.88 in 10.0 mi Calm Calm - N/A   Clear
7:53 PM 50.0 °F 46.0 °F 86% 29.89 in 10.0 mi ENE 4.6 mph - N/A   Scattered Clouds
8:53 PM 53.1 °F 48.9 °F 86% 29.88 in 10.0 mi East 4.6 mph - N/A   Scattered Clouds
11:53 PM 54.0 °F 50.0 °F 86% 29.83 in 10.0 mi ESE 5.8 mph - N/A   Overcast